Regional Weather Roundup
Issued by NWS

Home | Current Version | Previous Version | Text Only | Print | Product List | Glossary On
Versions: 1 2 3 4 5 6 7 8 9 10 11 12 13 14 15 16 17 18 19 20 21 22 23 24 25 26 27 28 29 30 31 32 33 34 35 36 37 38 39 40 41 42 43 44 45 46 47 48 49 50
000
ASUS45 KREV 131910
RWRNV
NEVADA REGIONAL WEATHER ROUNDUP
NATIONAL WEATHER SERVICE RENO NV
1100 AM PST SAT FEB 13 2016

NOTE: "FAIR" INDICATES FEW OR NO CLOUDS BELOW 12,000 FEET WITH NO
SIGNIFICANT WEATHER AND/OR OBSTRUCTIONS TO VISIBILITY.

NVZ001-003-004-132000-
WESTERN NEVADA

CITY           SKY/WX    TMP DP  RH WIND       PRES   REMARKS
RENO           SUNNY     53  27  36 CALM      30.36F
CARSON CITY    FAIR      55  19  24 E6        30.36S
MINDEN         FAIR      52  23  32 N5        30.36F
SLIDE MTN        N/A     43  14  31 W1          N/A
PYRAMID LAKE     N/A     50 N/A N/A N2          N/A
FALLON         MOSUNNY   55  34  45 S6        30.34F
LOVELOCK       SUNNY     56  34  43 E5        30.34S
HAWTHORNE      SUNNY     48  36  61 CALM      30.37R
$$

NVZ002-CAZ072-073-132000-
NORTHERN AND CENTRAL SIERRA

CITY           SKY/WX    TMP DP  RH WIND       PRES   REMARKS
S. LAKE TAHOE  SUNNY     47  23  38 NE9       30.38S
TRUCKEE        SUNNY     39  21  48 CALM      30.39F
SQUAW VLY 8000   N/A     41   7  24 S1          N/A
SUSANVILLE     SUNNY     48  34  57 CALM      30.37F
BLUE CANYON    SUNNY     59   1   9 VRB3      30.36R
MAMMOTH LAKES  FAIR      55   7  14 NW7       30.38F
BRIDGEPORT     FAIR      49  20  31 CALM      30.37F
$$

NVZ030-031-036-132000-
NORTHERN NEVADA

CITY           SKY/WX    TMP DP  RH WIND       PRES   REMARKS
ELKO           SUNNY     32  22  66 W3        30.36S
WINNEMUCCA     SUNNY     53  33  46 CALM      30.32F
WENDOVER       CLOUDY    30  27  86 S3        30.35S
$$

NVZ035-037-132000-
CENTRAL NEVADA

CITY           SKY/WX    TMP DP  RH WIND       PRES   REMARKS
ELY            PTSUNNY   38  26  62 SE6       30.34R
EUREKA           N/A     34  23  64 SW5       30.36S
$$

NVZ013-014-132000-
SOUTH CENTRAL NEVADA

CITY           SKY/WX    TMP DP  RH WIND       PRES   REMARKS
TONOPAH        MOSUNNY   47  35  63 SE6       30.32F
$$

NVZ017-020-022-132000-
SOUTHERN NEVADA

CITY           SKY/WX    TMP DP  RH WIND       PRES   REMARKS
LAS VEGAS      MOSUNNY   66  22  18 CALM      30.15S
N. LAS VEGAS   MOSUNNY   66  25  21 E5        30.18F
NELLIS AFB     MOSUNNY   62  27  26 CALM      30.17F
HENDERSON      SUNNY     66  24  20 NE8       30.20F
MERCURY        MOSUNNY   68  23  18 NE8       30.19F
$$



USA.gov is the U.S. government's official web portal to all federal, state and local government web resources and services.